CST,Max TemperatureF,Mean TemperatureF,Min TemperatureF,Max Dew PointF,MeanDew PointF,Min DewpointF,Max Humidity, Mean Humidity, Min Humidity, Max Sea Level PressureIn, Mean Sea Level PressureIn, Min Sea Level PressureIn, Max VisibilityMiles, Mean VisibilityMiles, Min VisibilityMiles, Max Wind SpeedMPH, Mean Wind SpeedMPH, Max Gust SpeedMPH,PrecipitationIn, CloudCover, Events, WindDirDegrees
2013-12-1,50,36,21,31,26,18,92,69,46,30.20,30.05,29.83,10,10,10,12,4,14,0.00,1,,170
2013-12-2,65,47,29,33,30,28,89,58,26,29.79,29.62,29.50,10,10,10,15,7,20,0.00,1,,229
2013-12-3,40,33,26,32,28,21,96,83,70,29.78,29.64,29.51,10,9,4,23,12,28,0.00,7,,355
2013-12-4,26,19,11,20,9,0,92,72,51,30.23,29.89,29.71,10,9,2,31,21,39,T,7,Snow,329
2013-12-5,16,11,5,-2,-6,-9,69,53,36,30.53,30.40,30.25,10,10,10,25,15,30,0.00,2,,335
2013-12-6,13,5,-4,-7,-9,-11,79,59,38,30.79,30.66,30.53,10,10,10,16,9,22,0.00,1,,350
2013-12-7,11,3,-5,4,-3,-10,80,63,46,30.79,30.57,30.27,10,7,2,15,7,18,0.03,5,Snow,109
2013-12-8,16,10,3,11,7,-4,96,85,73,30.36,30.16,29.99,10,5,1,17,6,22,0.07,7,Snow,74
2013-12-9,19,6,-7,7,-1,-10,82,67,51,30.42,30.30,30.17,10,10,10,29,12,36,0.00,0,,249
2013-12-10,32,20,7,25,15,3,85,69,53,30.36,30.22,30.13,10,10,10,23,9,29,T,3,,239
2013-12-11,26,15,4,17,5,-4,84,68,51,30.72,30.56,30.37,10,10,10,26,11,31,0.00,2,,301
2013-12-12,46,29,12,24,17,9,88,61,34,30.45,30.25,30.04,10,10,10,20,9,25,0.00,0,,225
2013-12-13,36,25,14,23,18,10,92,76,59,30.19,30.01,29.90,10,9,5,24,9,29,0.00,2,,29
2013-12-14,33,23,13,22,15,9,88,72,56,30.32,30.22,30.12,10,9,6,21,9,26,0.00,5,,325
2013-12-15,54,40,26,28,24,21,81,60,38,30.13,30.03,29.94,10,10,10,15,9,18,0.00,3,,253
2013-12-16,56,40,24,29,25,21,84,60,35,30.22,30.08,29.99,10,10,10,17,9,,0.00,0,,314
2013-12-17,48,35,22,26,20,15,88,58,28,30.39,30.25,30.06,10,10,10,23,9,31,0.00,0,,264
2013-12-18,67,48,28,26,23,21,75,48,20,30.02,29.81,29.68,10,10,10,23,11,29,0.00,0,,229
2013-12-19,35,23,11,27,17,6,84,74,63,30.03,29.86,29.72,10,9,2,24,15,30,T,4,Snow,16
2013-12-20,20,15,9,10,6,2,83,73,62,30.10,30.00,29.85,10,9,4,25,10,30,T,7,Snow,340
2013-12-21,28,21,13,15,12,9,80,65,50,29.98,29.87,29.81,10,10,10,21,7,25,0.00,2,,66
2013-12-22,26,18,10,11,7,3,80,63,46,30.48,30.24,30.00,10,10,10,20,13,24,T,4,,342
2013-12-23,15,8,0,5,1,-6,80,67,53,30.69,30.55,30.41,10,8,2,18,9,22,0.01,6,Snow,319
2013-12-24,36,23,9,29,17,3,88,79,70,30.48,30.23,30.03,10,7,2,25,14,31,T,7,Snow,204
2013-12-25,44,33,21,24,19,14,92,64,36,30.38,30.33,30.27,10,10,10,28,12,34,0.00,0,,277
2013-12-26,55,40,25,20,18,16,75,50,24,30.30,30.21,30.14,10,10,10,22,11,27,0.00,0,,274
2013-12-27,60,42,23,24,21,17,81,52,23,30.28,30.19,30.07,10,10,10,23,10,31,0.00,0,,231
2013-12-28,62,38,13,30,18,3,75,46,17,30.26,29.98,29.77,10,10,10,39,18,48,0.00,3,,267
2013-12-29,17,11,4,2,-6,-14,64,46,27,30.52,30.38,30.22,10,10,10,35,16,43,0.00,1,,339
2013-12-30,49,30,10,23,10,-7,77,56,34,30.33,30.20,30.09,10,10,10,39,14,46,0.00,3,,259
2013-12-31,50,32,13,22,15,8,88,60,32,30.28,30.12,29.94,10,10,10,18,10,24,0.00,2,,137